• Join FlightAware (Why Join?)
  • Login
  • US Flag 
09:58AM EDT


 

Airport Tracker/Info


-or-


 

Live Flight TrackerFlight Track Log ✈ N598DR ✈ 04-May-2012 ✈ KUES - KSTP

Flight Track Log - Related Links

Times and Time Zones

All times are in EDT time to prevent confusion due to time zone crossing. See the N598DR flight status page for this flight to view local times or setup timezone preferences in your user account.

Time Position Orientation Groundspeed Altitude Reporting Facility
EDT Latitude Longitude Course Direction KTS MPH feet Rate Location/Type
11:20AM 43.0333 -88.2167 40° Northeast 190 219 1,800  Level KMKE
11:21AM 43.1089 -88.1300 326° Northwest 267 307 5,600 2,700 Climbing Chicago Center
11:22AM 43.1742 -88.1911 316° Northwest 320 368 8,900 3,120 Climbing Chicago Center
11:23AM 43.2311 -88.2672 305° West 298 343 11,900 2,820 Climbing Chicago Center
11:24AM 43.2778 -88.3603 305° West 293 337 14,600 2,400 Climbing Chicago Center
11:25AM 43.3264 -88.4567 304° West 298 343 16,800 2,100 Climbing Chicago Center
11:26AM 43.3814 -88.5672 306° West 309 356 18,900 2,100 Climbing Chicago Center
11:27AM 43.4364 -88.6722 306° West 328 377 21,000 1,980 Climbing Chicago Center
11:28AM 43.4889 -88.7719 306° West 328 377 22,900 1,500 Climbing Chicago Center
11:29AM 43.5436 -88.8772 304° West 328 377 24,000 540 Climbing Chicago Center
11:30AM 43.6003 -88.9944 305° West 351 404 24,000  Level Chicago Center
11:31AM 43.6631 -89.1203 305° West 382 440 24,000  Level Chicago Center
11:32AM 43.7278 -89.2464 304° West 403 464 24,000  Level Chicago Center
11:34AM 43.8381 -89.4739 304° West 413 475 24,000  Level Minneapolis Center
11:35AM 43.9033 -89.6078 304° West 418 481 24,000  Level Minneapolis Center
11:36AM 43.9681 -89.7419 300° West 418 481 24,000  Level Minneapolis Center
11:37AM 44.0247 -89.8800 297° West 424 488 24,000  Level Minneapolis Center
11:38AM 44.0772 -90.0239 296° West 419 482 24,000  Level Minneapolis Center
11:39AM 44.1294 -90.1714 298° West 419 482 24,000  Level Minneapolis Center
11:40AM 44.1836 -90.3131 296° West 419 482 24,000  Level Minneapolis Center
11:41AM 44.2356 -90.4608 297° West 419 482 24,000  Level Minneapolis Center
11:42AM 44.2869 -90.6006 296° West 419 482 24,000  Level Minneapolis Center
11:43AM 44.3364 -90.7431 297° West 419 482 24,000  Level Minneapolis Center
11:44AM 44.3878 -90.8861 297° West 419 482 24,000 -240 Level Minneapolis Center
11:45AM 44.4386 -91.0233 296° West 408 470 23,600 -1,260 Descending Minneapolis Center
11:46AM 44.4875 -91.1667 297° West 403 464 21,500 -2,040 Descending Minneapolis Center
11:47AM 44.5381 -91.3075 295° West 403 464 19,500 -2,040 Descending Minneapolis Center
11:48AM 44.5822 -91.4428 297° West 397 457 17,500 -2,040 Descending Minneapolis Center
11:49AM 44.6303 -91.5753 296° West 391 450 15,500 -2,100 Descending Minneapolis Center
11:50AM 44.6806 -91.7225 295° West 385 443 13,400 -2,100 Descending Minneapolis Center
11:51AM 44.7219 -91.8469 297° West 374 430 11,400 -2,100 Descending Minneapolis Center
11:52AM 44.7675 -91.9742 302° West 368 423 9,300 -1,920 Descending Minneapolis Center
11:53AM 44.8025 -92.0522 294° West 299 344 8,000 -1,560 Descending FAA TRACON SMA TRACON (SMA)
11:53AM 44.8250 -92.1250 295° West 293 337 7,000 -1,380 Descending FAA TRACON SMA TRACON (SMA)
11:54AM 44.8458 -92.1889 295° West 292 336 6,200 -840 Descending FAA TRACON SMA TRACON (SMA)
11:55AM 44.8689 -92.2592 294° West 286 329 5,900 -240 Descending FAA TRACON SMA TRACON (SMA)
11:55AM 44.8903 -92.3281 281° West 276 318 5,900 -420 Level FAA TRACON SMA TRACON (SMA)
11:56AM 44.9000 -92.4019 274° West 279 321 5,400 -1,020 Descending FAA TRACON SMA TRACON (SMA)
11:57AM 44.9036 -92.4708 274° West 289 333 4,600 -1,140 Descending FAA TRACON SMA TRACON (SMA)
11:57AM 44.9078 -92.5517 274° West 300 345 3,900 -540 Descending FAA TRACON SMA TRACON (SMA)
11:58AM 44.9114 -92.6231 276° West 297 342 3,900 -240 Level FAA TRACON SMA TRACON (SMA)
11:59AM 44.9172 -92.7039 280° West 301 346 3,600 -540 Descending FAA TRACON SMA TRACON (SMA)
11:59AM 44.9269 -92.7836 283° West 300 345 3,200 -540 Descending FAA TRACON SMA TRACON (SMA)
12:00PM 44.9394 -92.8578 299° West 278 320 2,900 -540 Descending FAA TRACON SMA TRACON (SMA)
12:01PM 44.9619 -92.9161 295° West 273 314 2,500 -420 Descending FAA TRACON SMA TRACON (SMA)
12:01PM 44.9836 -92.9819 274° West 266 306 2,400 -120 Descending FAA TRACON SMA TRACON (SMA)
12:02PM 44.9867 -93.0475 244° Southwest 242 278 2,400 -420 Level FAA TRACON SMA TRACON (SMA)
12:03PM 44.9733 -93.0869 162° South 193 222 1,900 -1,080 Descending FAA TRACON SMA TRACON (SMA)
12:04PM 44.9522 -93.0772 162° South 132 152 1,000 -1,380 Descending FAA TRACON SMA TRACON (SMA)